History Range:
146.850
Actions Date Temp RH
2019-08-18 02:00:40 87.4000 9.4000
2019-08-18 01:30:02 87.4000 13.6000
2019-08-18 01:03:53 87.6000 13.4000
2019-08-18 00:30:06 87.8000 13.7000
2019-08-18 00:03:37 87.8000 13.5000
2019-08-17 23:30:00 88.2000 14.6000
2019-08-17 23:00:02 88.0000 17.0000
2019-08-17 22:30:04 88.2000 17.0000
2019-08-17 22:00:00 88.2000 16.7000
2019-08-17 21:30:00 88.2000 14.3000
2019-08-17 21:00:00 88.2000 13.3000
2019-08-17 20:42:12 88.3000 13.2000
2019-08-17 20:01:04 88.3000 13.6000
2019-08-17 19:30:00 88.2000 13.1000
2019-08-17 19:00:02 88.2000 12.2000
2019-08-17 18:30:00 87.8000 12.3000
2019-08-17 18:07:38 87.8000 12.4000
2019-08-17 17:30:02 87.6000 11.6000
2019-08-17 17:02:03 87.6000 11.2000
2019-08-17 16:30:44 87.3000 11.4000